Flag for Canada Weather past 2 weeks in Regina, Saskatchewan, Canada

Now
52 °F

Clear.


Feels Like: 50 °F
Forecast: 45 / 73 °F
Wind: 6 mph from North

Location: Regina Weather Station

Current Time: Jul 7, 2015 at 11:36:28 PM

Latest Report: Jul 7, 2015 at 11:00 PM


Visibility: 4 mi

Pressure: 30.04 "Hg (28.03 "Hg at 577m altitude)

Humidity: 88%

Dew point: 48 °F

Location of ReginaLocation

Historic Weather in Regina — Graph

°F

Regina temperature yesterday

Maximum temperature yesterday: 70 °F (at 4:00 PM)
Minimum temperature yesterday: 43 °F (at 5:00 AM)
Average temperature yesterday: 59 °F

Past Weeks' High & Low Weather Summary

 TemperatureHumidityPressure
High90 °F (Jun 28, 4:00 PM)100% (Jun 27, 5:00 AM)30.25 "Hg (Jun 27, 5:00 AM)
Low43 °F (Jul 6, 5:00 AM)26% (Jun 25, 4:00 PM)29.72 "Hg (Jul 4, 6:00 AM)
Average67 °F67%30.00 "Hg
* Reported Jun 22 10:00 PM — Jul 7 10:00 PM, Regina, Weather by CustomWeather, © 2015

Note: Actual official high and low records may vary slightly from our data, if they occured in-between our weather recording intervals... More about our weather records

Advertising

Regina weather history for previous 24 hours

 ConditionsComfort  
Time TempWeatherWind HumidityBarometerVisibility
10:00 PM
Tue, Jul 7
55 °FClear.9 mph82%30.03 "Hg3 mi
9:00 PM59 °FSunny.12 mph77%30.01 "Hg2 mi
8:48 PM59 °FSunny.13 mph77%30.01 "Hg2 mi
8:00 PM63 °FSunny.21 mph73%29.98 "Hg1 mi
7:00 PM68 °FSunny.23 mph69%29.96 "Hg2 mi
6:00 PM75 °FScattered clouds.15 mph44%29.95 "Hg15 mi
5:00 PM77 °FScattered clouds.16 mph42%29.95 "Hg15 mi
4:00 PM79 °FPartly sunny.13 mph39%29.94 "Hg15 mi
3:00 PM72 °FSprinkles. Partly sunny.8 mph50%29.96 "Hg15 mi
2:00 PM75 °FPartly sunny.13 mph41%29.97 "Hg15 mi
1:00 PM75 °FPartly sunny.12 mph41%29.98 "Hg15 mi
12:00 PM75 °FPartly sunny.13 mph44%30.00 "Hg15 mi
11:00 AM72 °FPartly sunny.10 mph53%30.02 "Hg15 mi
10:00 AM70 °FPartly sunny.10 mph57%30.03 "Hg15 mi
9:00 AM63 °FPartly sunny.5 mph77%30.05 "Hg15 mi
8:00 AM57 °FBroken clouds.7 mph77%30.07 "Hg15 mi
7:00 AM52 °FBroken clouds.9 mph82%30.08 "Hg15 mi
6:00 AM50 °FPartly sunny.7 mph82%30.09 "Hg15 mi
5:00 AM48 °FMore clouds than sun.7 mph87%30.10 "Hg15 mi
4:00 AM52 °FMostly cloudy.9 mph77%30.12 "Hg15 mi
3:00 AM50 °FPassing clouds.7 mph76%30.13 "Hg15 mi
2:00 AM50 °FPassing clouds.9 mph76%30.14 "Hg15 mi
1:00 AM48 °FPassing clouds.8 mph82%30.14 "Hg15 mi
12:00 AM52 °FPassing clouds.7 mph77%30.15 "Hg10 mi
11:00 PM
Mon, Jul 6
54 °FPassing clouds.7 mph72%30.15 "Hg10 mi
Weather by CustomWeather, © 2015

See weather overviewHow to use our weather pages